Regional Weather Roundup
Issued by NWS Upton, NY

Home | Current Version | Previous Version | Text Only | Print | Product List | Glossary On
Versions: 1 2 3 4 5 6 7 8 9 10 11 12 13 14 15 16 17 18 19 20 21 22 23 24 25 26 27
000
ASUS41 KOKX 171009
RWROKX

REGIONAL WEATHER ROUNDUP
NATIONAL WEATHER SERVICE NEW YORK NY
600 AM EDT THU AUG 17 2017

NOTE: "FAIR" INDICATES FEW OR NO CLOUDS BELOW 12,000 FEET WITH NO
SIGNIFICANT WEATHER AND/OR OBSTRUCTIONS TO VISIBILITY.

NYZ071-072-176-178-NJZ106-104-171100-
NEW YORK CITY METRO AREA

CITY           SKY/WX    TMP DP  RH WIND       PRES   REMARKS
Central Park   MOCLDY    70  55  59 N3        30.07R
Bronx Bot Gard   N/A     66  55  68 NW1       30.04F
LaGuardia APRT MOCLDY    71  57  61 NE8       30.03R
Kennedy INTL   MOCLDY    69  61  75 N7        30.04R
Breezy Point     N/A     72 N/A N/A N7G13       N/A
Newark/Liberty MOCLDY    67  60  78 N8        30.04R
Teterboro      CLOUDY    70  59  68 N3        30.04R
$$

NYZ177-179-078>081-171100-
LONG ISLAND NEW YORK

CITY           SKY/WX    TMP DP  RH WIND       PRES   REMARKS
Jones Beach      N/A     68 N/A N/A NE9         N/A
Matinecock PT    N/A     70 N/A N/A NE10        N/A
Farmingdale    MOCLDY    67  58  72 N7        30.04R
MacArthur/ISP  PTCLDY    66  61  84 N5        30.03R
Shirley        CLOUDY    67  61  81 CALM      30.04R
Mt Sinai Harb    N/A    N/A N/A N/A NE9         N/A
Westhampton    CLEAR     63  57  81 CALM      30.06R
East Hampton   FAIR      60  55  86 CALM      30.04R
Montauk          N/A     67  55  65 NE6       30.06R
$$

NYZ052-065-067-171100-
HUDSON VALLEY

CITY           SKY/WX    TMP DP  RH WIND       PRES   REMARKS
White Plains   PTCLDY    64  55  72 N7        30.05R
Larchmont Harb   N/A     66 N/A N/A NW5         N/A
Croton On Huds   N/A     63 N/A N/A NE2         N/A
Newburgh       PTCLDY    61  57  88 VRB5      30.08R
Montgomery     MOCLDY    58  56  93 CALM      30.06R
Poughkeepsie   CLEAR     56  53  90 CALM      30.06R
Albany         PTCLDY    53  49  86 CALM      30.09R
$$

NJZ001-105-106-008-010-013-015-019>022-104-171100-
NEW JERSEY

CITY           SKY/WX    TMP DP  RH WIND       PRES   REMARKS
Newark/Liberty MOCLDY    67  60  78 N8        30.04R
Teterboro      CLOUDY    70  59  68 N3        30.04R
Caldwell       MOCLDY    65  64  97 CALM      30.06R
Somerville     CLEAR     63  63 100 CALM      30.03R FOG
Linden         FAIR      71  58  63 N5        30.04R
Perth Amboy      N/A     72 N/A N/A NE5         N/A
Sussex         MOCLDY    61  60  97 CALM      30.06R
Andover          N/A     63  61  93 CALM      30.06R
Trenton        PTCLDY    66  62  87 N3        30.03R
Millville      CLEAR     68  68 100 CALM      30.02R FOG
Atlantic City  FOG       68  68 100 CALM      30.02R VSB 1
Wrightstown    CLEAR     64  63  97 CALM      30.01R
Toms River     CLEAR     64  63  96 CALM      30.04R
Belmar         MOCLDY    68  62  81 NE3       30.05R
$$

PAZ047>061-062-071-171100-
EASTERN PENNSYLVANIA

CITY           SKY/WX    TMP DP  RH WIND       PRES   REMARKS
Philadelphia   PTCLDY    71  63  75 NE5       30.03R
Allentown      MOCLDY    64  61  90 N5        30.05R
Scranton       PTCLDY    60  57  89 E5        30.08R
$$

CTZ002-004>006-009-010-012-RIZ004-006-007-MAZ004-011-015-171100-
SOUTHERN NEW ENGLAND
 IN CT

CITY           SKY/WX    TMP DP  RH WIND       PRES   REMARKS
Bradley INTL   PTCLDY    57  55  93 CALM      30.06R
Hartford       CLEAR     61  58  90 NE3       30.06R
Danbury        CLEAR     57  56  96 CALM      30.08R
Wtrbury/Oxford CLEAR     58  54  86 CALM      30.07R
Norwalk Harbor   N/A     64 N/A N/A N8          N/A
Bridgeport     PTCLDY    66  58  75 N8        30.05R
Meriden        CLEAR     59  56  89 CALM      30.06R
New Haven      PTCLDY    62  56  80 N5        30.05R
Chester        NOT AVBL
Groton         CLOUDY    64  54  69 N7        30.04R
Wilimantic     CLEAR     57  56  96 CALM      30.07R

 IN RI

CITY           SKY/WX    TMP DP  RH WIND       PRES   REMARKS
Providence     PTCLDY    62  52  69 NW6       30.05R
Block Island   MOCLDY    66  55  67 NE6       30.05R
Westerly       PTCLDY    63  53  70 N5        30.05R
 IN MA

CITY           SKY/WX    TMP DP  RH WIND       PRES   REMARKS
Boston         PTCLDY    63  48  58 NW5       30.05R
Worcester      CLEAR     57  44  62 NW5       30.07R
Westfield      FOG       52  52 100 CALM      30.07R VSB 3/4
Provincetown   CLEAR     64  57  78 N3        30.04R
Nantucket      CLEAR     64  58  80 N10       30.02R
$$

ANZ330-335-338-340-345-350-353-355-171100-
COASTAL MARINE OBSERVATIONS


STATION/POSITION TIME  SKY/WX   TEMP    WIND        PRES    VSBY  WAVE
                                AIR SEA DIR/SP/G                  HT/PER
                 (UTC)          (F)     (DEG/KT/KT) (MB)    (MI)  (FT/S)
NY HARB ENTRANCE 0850            74 75   30/ 14/ 16 1015.6          3/ 9
GREAT SOUTH BAY  0930            71 77   30/  8/ 12   N/A
23 SSW MONTAUK P 0850            71 71              1016.7          3/ 9
15 E BARNEGAT LI 0930               76                N/A           3/ 9
HUDSON CANYON    0850            74 74  270/  4/  4 1015.4          3/ 8
KINGS POINT      0930            70 74   70/  5/  9 1016.8
EXECUTION ROCKS  NOT AVBL
WESTERN LI SOUND NOT AVBL
CENTRAL LI SOUND NOT AVBL
EASTERN LI SOUND NOT AVBL
ROBBINS REEF     0930                   360/  7/  9 1017.4
$$


>>>>>>>>>>>>>>>>>>>>>>>>>>>> KEY <<<<<<<<<<<<<<<<<<<<<<<<<<<
>                                                          <
>     SKY/WX - Sky Condition/Present Weather               <
>     TMP    - Temperature in Fahrenheit                   <
>     DP     - Dew Point in Fahrenheit                     <
>     RH     - Relative Humidity in Percent                <
>     WIND   - Direction (from) and Speed in MPH           <
>     PRES   - Mean Sea Level Pressure (inches of Hg)      <
>     WCI    - Wind Chill Index                            <
>     VSB    - VISIBILITY IN MILES                         <
>     HX     - HEAT INDEX                                  <
>     TC     - TEMPERATURE IN CELSIUS                      <
>     VRB    - VARIABLE WIND DIRECTION                     <
>                                                          <
>>>>>>>>>>>>>>>>>>>>>>>>>>>> KEY <<<<<<<<<<<<<<<<<<<<<<<<<<<




USA.gov is the U.S. government's official web portal to all federal, state and local government web resources and services.